TimeCDT,TemperatureF,Dew PointF,Humidity,Sea Level PressureIn,VisibilityMPH,Wind Direction,Wind SpeedMPH,Gust SpeedMPH,PrecipitationIn,Events,Conditions,WindDirDegrees,DateUTC
12:15 AM,42.8,37.4,81,29.93,10.0,North,26.5,35.7,0.00,,Overcast,350,2012-10-04 05:15:00
12:35 AM,42.8,37.4,81,29.93,10.0,North,27.6,33.4,0.00,,Overcast,350,2012-10-04 05:35:00
12:55 AM,42.8,37.4,81,29.94,10.0,NNW,26.5,33.4,0.00,,Overcast,340,2012-10-04 05:55:00
1:15 AM,42.8,37.4,81,29.94,10.0,NNW,26.5,33.4,0.00,,Overcast,340,2012-10-04 06:15:00
1:35 AM,42.8,37.4,81,29.94,10.0,NNW,27.6,33.4,0.00,,Overcast,340,2012-10-04 06:35:00
2:15 AM,42.8,37.4,81,29.94,10.0,NNW,27.6,35.7,0.00,,Overcast,330,2012-10-04 07:15:00
2:35 AM,39.2,35.6,87,29.96,10.0,NW,27.6,33.4,0.00,,Overcast,310,2012-10-04 07:35:00
2:55 AM,37.4,35.6,93,29.97,3.0,NW,27.6,38.0,0.00,,Overcast,310,2012-10-04 07:55:00
3:15 AM,35.6,35.6,100,29.97,2.5,NW,32.2,40.3,0.00,,Overcast,310,2012-10-04 08:15:00
3:35 AM,35.6,35.6,100,29.98,2.0,NW,32.2,42.6,0.00,,Overcast,310,2012-10-04 08:35:00
3:55 AM,35.6,35.6,100,29.99,2.0,NW,32.2,42.6,0.00,,Overcast,320,2012-10-04 08:55:00
4:15 AM,35.6,35.6,100,29.99,2.5,NW,29.9,41.4,0.00,,Overcast,320,2012-10-04 09:15:00
4:35 AM,35.6,35.6,100,30.00,3.0,NNW,27.6,38.0,0.00,,Mostly Cloudy,330,2012-10-04 09:35:00
4:55 AM,35.6,33.8,93,30.00,4.0,NNW,27.6,36.8,0.00,,Overcast,330,2012-10-04 09:55:00
5:15 AM,35.6,33.8,93,30.01,5.0,NNW,24.2,35.7,0.00,,Overcast,330,2012-10-04 10:15:00
5:35 AM,33.8,33.8,100,30.01,1.8,NNW,27.6,32.2,0.00,,Overcast,330,2012-10-04 10:35:00
5:55 AM,33.8,33.8,100,30.01,2.5,NW,27.6,34.5,0.00,,Overcast,320,2012-10-04 10:55:00
6:15 AM,33.8,33.8,100,30.02,4.0,NW,25.3,33.4,0.00,,Overcast,320,2012-10-04 11:15:00
6:35 AM,35.6,33.8,93,30.03,5.0,NW,25.3,33.4,0.00,,Overcast,320,2012-10-04 11:35:00
6:55 AM,35.6,35.6,100,30.05,8.0,NW,27.6,34.5,0.00,,Overcast,310,2012-10-04 11:55:00
7:15 AM,35.6,35.6,100,30.07,7.0,NW,26.5,33.4,0.00,,Overcast,310,2012-10-04 12:15:00
7:35 AM,35.6,35.6,100,30.07,10.0,NW,27.6,35.7,0.00,,Overcast,320,2012-10-04 12:35:00
7:55 AM,35.6,35.6,100,30.07,9.0,NW,28.8,35.7,0.00,,Overcast,320,2012-10-04 12:55:00
8:15 AM,35.6,35.6,100,30.08,9.0,NW,25.3,31.1,0.00,,Overcast,320,2012-10-04 13:15:00
8:35 AM,37.4,35.6,93,30.09,10.0,NW,27.6,33.4,0.00,,Overcast,320,2012-10-04 13:35:00
8:55 AM,37.4,35.6,93,30.09,10.0,NW,27.6,36.8,0.00,,Overcast,320,2012-10-04 13:55:00
9:15 AM,37.4,33.8,87,30.10,10.0,NW,29.9,38.0,0.00,,Overcast,320,2012-10-04 14:15:00
9:35 AM,37.4,33.8,87,30.11,10.0,NW,25.3,35.7,0.00,,Overcast,320,2012-10-04 14:35:00
9:55 AM,39.2,33.8,81,30.12,10.0,NW,33.4,41.4,0.00,,Overcast,310,2012-10-04 14:55:00
10:15 AM,39.2,33.8,81,30.13,10.0,NW,26.5,29.9,0.00,,Overcast,310,2012-10-04 15:15:00
10:35 AM,39.2,33.8,81,30.14,9.0,NW,21.9,33.4,0.00,,Overcast,320,2012-10-04 15:35:00
11:15 AM,39.2,33.8,81,30.16,8.0,NW,23.0,33.4,0.00,,Overcast,320,2012-10-04 16:15:00
11:35 AM,39.2,33.8,81,30.16,10.0,NW,23.0,33.4,0.00,,Overcast,310,2012-10-04 16:35:00
11:55 AM,39.2,35.6,87,30.16,7.0,NW,19.6,27.6,0.00,,Overcast,310,2012-10-04 16:55:00
12:15 PM,39.2,37.4,93,30.17,3.0,NW,23.0,31.1,0.00,,Overcast,320,2012-10-04 17:15:00
12:35 PM,41.0,37.4,87,30.17,5.0,NW,25.3,34.5,0.00,,Overcast,320,2012-10-04 17:35:00
12:55 PM,39.2,37.4,93,30.18,8.0,NW,20.7,-,0.00,,Mostly Cloudy,320,2012-10-04 17:55:00
1:15 PM,41.0,35.6,81,30.18,6.0,NW,24.2,33.4,0.00,,Overcast,320,2012-10-04 18:15:00
1:35 PM,41.0,37.4,87,30.18,6.0,NW,27.6,32.2,0.00,,Overcast,320,2012-10-04 18:35:00
1:55 PM,41.0,35.6,81,30.18,7.0,NW,27.6,34.5,0.00,,Overcast,310,2012-10-04 18:55:00
2:15 PM,41.0,37.4,87,30.18,5.0,NW,26.5,33.4,0.00,,Overcast,310,2012-10-04 19:15:00
2:35 PM,42.8,35.6,76,30.18,9.0,NW,21.9,29.9,0.00,,Overcast,310,2012-10-04 19:35:00
2:55 PM,42.8,33.8,70,30.18,10.0,NW,29.9,34.5,0.00,,Overcast,310,2012-10-04 19:55:00
3:15 PM,42.8,33.8,70,30.18,10.0,NW,24.2,31.1,0.00,,Overcast,310,2012-10-04 20:15:00
3:35 PM,44.6,33.8,66,30.19,10.0,WNW,27.6,34.5,0.00,,Overcast,300,2012-10-04 20:35:00
3:55 PM,44.6,33.8,66,30.19,10.0,NW,28.8,36.8,0.00,,Overcast,320,2012-10-04 20:55:00
4:15 PM,44.6,32.0,61,30.19,10.0,NW,28.8,35.7,0.00,,Mostly Cloudy,320,2012-10-04 21:15:00
4:35 PM,42.8,32.0,66,30.20,10.0,NW,24.2,28.8,0.00,,Overcast,310,2012-10-04 21:35:00
5:15 PM,42.8,32.0,66,30.21,10.0,NW,25.3,28.8,0.00,,Overcast,320,2012-10-04 22:15:00
5:35 PM,42.8,32.0,66,30.21,10.0,NW,21.9,29.9,0.00,,Overcast,310,2012-10-04 22:35:00
5:55 PM,42.8,32.0,66,30.22,10.0,NW,18.4,28.8,0.00,,Overcast,320,2012-10-04 22:55:00
6:15 PM,42.8,33.8,70,30.22,9.0,NW,15.0,19.6,0.00,,Overcast,310,2012-10-04 23:15:00
6:35 PM,42.8,33.8,70,30.22,10.0,WNW,20.7,-,0.00,,Overcast,300,2012-10-04 23:35:00
6:55 PM,41.0,33.8,76,30.23,10.0,WNW,16.1,-,0.00,,Overcast,300,2012-10-04 23:55:00
7:15 PM,42.8,33.8,70,30.23,10.0,WNW,17.3,-,0.00,,Overcast,300,2012-10-05 00:15:00
7:55 PM,41.0,32.0,70,30.24,10.0,WNW,17.3,24.2,0.00,,Overcast,300,2012-10-05 00:55:00
8:15 PM,41.0,32.0,70,30.24,10.0,WNW,15.0,-,0.00,,Overcast,300,2012-10-05 01:15:00
8:35 PM,41.0,30.2,65,30.24,10.0,WNW,20.7,26.5,0.00,,Overcast,300,2012-10-05 01:35:00
9:15 PM,39.2,28.4,65,30.25,10.0,NW,13.8,-,0.00,,Overcast,310,2012-10-05 02:15:00
9:35 PM,39.2,30.2,70,30.25,10.0,WNW,10.4,-,0.00,,Scattered Clouds,290,2012-10-05 02:35:00
10:15 PM,35.6,28.4,75,30.25,10.0,West,12.7,18.4,0.00,,Scattered Clouds,280,2012-10-05 03:15:00
10:35 PM,33.8,28.4,81,30.26,10.0,West,11.5,-,0.00,,Clear,280,2012-10-05 03:35:00
10:55 PM,33.8,28.4,81,30.26,10.0,West,12.7,-,0.00,,Clear,280,2012-10-05 03:55:00
11:15 PM,33.8,28.4,81,30.26,10.0,West,11.5,-,0.00,,Clear,270,2012-10-05 04:15:00
11:35 PM,32.0,28.4,87,30.26,10.0,West,10.4,-,0.00,,Clear,270,2012-10-05 04:35:00
11:55 PM,32.0,28.4,87,30.25,10.0,West,10.4,-,0.00,,Clear,270,2012-10-05 04:55:00